SCP
1 1 1 1 1 1 1 1 1 1 0 0 0 0 0 0 0 1 1 1 1 1 1 1 1 1 1 1 1 1 1 1 1 1 1 1 1 1 1 1 1 1 0
1 1 1 1 1 1 1 1 1 1 1 1 0 0 0 0 0 1 1 1 1 1 1 1 1 1 1 1 1 1 1 1 1 1 1 1 1 1 1 1 1 1 1
1 1 1 1 1 1 1 1 1 1 1 1 1 1 0 0 0 1 1 1 1 1 1 1 1 1 1 1 1 1 1 1 1 1 1 1 1 1 1 1 1 1 1
1 1 1 1 1 1 1 1 1 1 1 1 1 1 1 1 1 1 0 0 1 1 1 1 1 1 1 1 1 1 1 1 1 1 1 1 1 1 1 1 1 1 0
1 1 1 1 1 2 2 1 1 1 1 1 1 1 1 1 1 0 0 0 0 1 1 1 1 1 1 1 1 1 1 1 1 1 1 1 1 1 1 1 1 1 1
1 1 1 1 1 1 1 1 1 1 1 1 1 1 1 1 1 1 1 1 1 1 1 1 1 1 1 1 1 1 1 1 1 1 1 1 1 1 1 1 1 1 1
1 1 1 1 1 1 1 1 1 1 1 1 1 1 1 1 1 1 1 1 1 1 1 1 1 1 1 1 1 1 1 1 1 1 1 1 1 1 1 1 1 1 1
1 1 1 1 1 1 1 1 1 2 2 1 1 1 1 1 1 1 1 1 1 1 1 1 1 1 1 1 1 1 1 1 1 1 1 1 1 1 1 1 1 1 1
1 1 1 1 1 1 1 2 2 2 2 2 2 2 1 1 1 1 1 1 1 1 1 1 1 1 1 1 1 1 1 2 1 1 1 1 1 1 1 1 1 1 1
1 1 1 2 2 2 2 2 2 2 2 2 2 2 2 2 1 1 1 1 2 2 1 1 1 1 1 2 2 2 2 2 1 1 1 1 1 1 1 1 1 1 1
1 1 1 2 2 2 3 3 3 3 3 3 2 2 2 2 3 2 2 2 2 2 2 2 2 2 2 2 2 2 1 1 1 1 1 1 1 1 1 1 1 1 1
1 1 1 1 1 1 2 3 3 3 3 3 3 3 3 3 4 4 3 2 2 2 3 2 2 2 2 3 3 2 1 1 1 0 1 1 1 1 1 1 1 1 1
1 1 1 1 1 1 1 2 2 3 3 4 4 4 4 4 5 5 4 3 3 3 3 3 2 2 2 3 3 2 1 1 0 0 0 1 1 1 1 1 1 1 1
2 2 2 2 1 1 1 1 2 2 3 3 4 4 4 4 4 5 6 5 5 4 4 3 2 2 2 3 3 2 2 1 0 0 0 0 1 1 1 1 1 1 1
2 2 2 2 2 2 2 2 2 2 3 3 3 3 4 4 4 5 6 7 6 5 4 3 3 3 3 3 3 3 3 2 1 0 0 0 0 0 1 1 0 0 0
2 2 2 2 2 2 2 2 2 2 3 3 3 3 3 3 4 4 6 7 6 4 3 3 2 3 3 3 3 3 3 2 1 1 0 0 0 0 0 0 0 0 0
3 3 3 3 3 3 3 3 3 3 3 3 3 3 3 3 4 4 4 5 4 3 3 2 2 3 3 3 3 3 3 2 2 1 0 0 0 0 0 0 0 0 0
7 5 3 3 3 3 3 3 3 3 3 3 4 4 4 5 4 4 4 4 4 3 3 3 3 3 4 4 3 3 2 2 2 1 0 0 0 0 0 0 0 0 0
11 7 5 4 4 3 4 4 4 4 4 5 5 5 6 6 6 6 5 5 5 4 5 4 4 4 5 5 4 3 2 2 2 1 1 0 0 0 0 0 0 0 0
11 8 5 5 5 4 4 5 5 6 6 7 7 7 7 8 8 8 7 7 7 7 6 6 6 6 6 5 4 3 2 2 2 2 1 1 1 0 0 0 0 0 0
8 6 5 5 5 4 4 4 5 7 8 8 8 7 7 7 7 7 8 8 9 8 8 8 8 8 7 6 4 3 2 3 3 2 2 2 1 1 1 0 0 1 1
7 6 5 5 4 4 3 3 4 6 7 8 8 7 7 6 6 6 6 6 7 8 8 9 9 9 8 6 4 3 2 3 3 2 2 2 1 1 1 1 1 1 0
6 6 5 4 3 3 2 2 3 5 6 6 6 6 6 6 6 6 5 5 5 6 7 8 9 9 7 5 4 3 3 3 2 2 2 2 1 1 1 1 1 0 0
5 5 5 4 4 3 3 2 2 4 5 4 5 5 6 6 6 7 8 8 7 6 5 6 7 7 5 4 4 3 3 3 2 2 2 2 2 1 1 1 1 0 0
5 5 5 5 4 4 3 2 2 3 5 5 5 5 5 5 6 7 9 10 9 6 3 3 3 3 2 2 3 3 3 3 2 2 2 2 2 2 2 1 1 1 0
5 5 5 5 5 4 3 2 2 4 5 5 5 5 4 4 5 6 8 10 8 5 3 2 1 1 1 1 2 2 3 3 2 2 2 2 2 2 2 2 2 1 0
Wind_Speed
2 2 2 1 2 2 3 2 2 3 3 4 4 4 4 4 3 4 3 9 9 9 10 10 11 11 11 12 12 12 11 11 11 11 11 10 10 10 10 10 10 10 10
2 2 2 2 2 2 2 2 3 3 3 2 4 3 4 4 4 5 4 7 11 11 11 11 12 12 12 12 12 12 12 12 12 11 11 11 11 11 11 11 11 11 10
3 3 2 2 2 2 2 3 3 3 3 4 4 4 4 5 4 5 5 4 7 12 12 11 11 12 13 13 13 13 13 13 13 12 12 12 11 11 12 12 12 11 11
4 3 3 3 2 3 2 2 3 2 2 3 3 4 4 4 5 6 6 6 5 5 10 13 12 12 13 14 14 13 13 13 13 13 13 13 13 13 13 13 13 12 12
5 5 3 2 3 3 2 3 2 2 3 3 4 4 5 4 4 6 6 7 6 6 5 9 13 12 14 14 14 14 14 14 14 15 15 15 15 14 14 14 14 13 13
5 5 4 3 4 3 3 3 3 3 4 4 4 3 4 4 5 5 6 6 5 7 7 6 7 10 14 13 13 14 14 15 14 15 15 15 16 15 15 15 15 15 14
5 4 3 3 4 4 4 4 3 4 4 3 4 3 4 5 4 4 4 4 4 4 4 5 5 4 6 12 12 11 12 12 12 13 14 14 15 15 15 16 16 15 15
5 5 5 4 4 4 5 4 4 4 3 3 3 3 3 4 4 3 3 3 3 3 4 4 4 4 4 3 5 9 9 9 10 11 11 12 13 13 14 15 15 15 16
6 5 5 5 4 6 5 5 5 5 4 3 3 3 3 1 1 3 3 2 2 2 3 3 4 3 3 3 3 5 5 6 7 8 8 8 10 11 12 13 13 14 14
6 6 6 5 5 5 4 6 5 5 5 4 3 4 4 3 3 1 3 3 2 2 2 3 3 2 3 2 2 2 3 3 4 5 6 7 7 7 8 9 10 11 11
6 6 5 5 5 5 5 5 4 5 5 5 4 3 4 4 5 4 3 2 2 2 1 2 2 2 2 2 1 3 4 2 2 2 2 3 4 5 6 7 7 8 9
5 6 6 5 5 5 5 5 5 6 5 5 4 4 4 4 4 4 4 4 3 2 2 1 2 1 1 1 2 5 4 2 1 1 1 1 2 2 3 4 5 6 7
5 5 5 5 5 5 5 5 5 5 5 5 5 4 4 4 4 4 5 4 3 2 2 2 2 2 1 1 3 4 4 3 2 1 1 1 1 1 1 2 2 2 3
4 4 5 6 6 6 6 5 5 5 5 5 6 5 5 4 4 4 4 4 4 3 3 2 1 2 1 1 2 3 4 4 3 3 3 3 3 3 2 2 2 2 1
5 6 6 6 6 6 6 6 5 5 5 6 6 6 6 4 4 4 4 5 5 4 3 3 3 2 2 1 2 2 3 5 4 4 3 4 4 3 3 2 2 2 2
5 6 6 6 6 6 6 7 6 6 6 5 4 5 5 5 4 4 4 4 5 5 4 1 2 2 2 2 3 3 3 6 5 4 4 4 4 4 3 3 3 2 2
6 6 6 6 6 7 6 6 7 6 7 6 6 6 6 6 4 4 4 5 5 5 5 3 2 2 3 3 3 3 4 4 5 6 5 4 4 4 3 3 3 3 3
7 7 7 6 7 7 6 7 8 7 7 7 7 7 7 6 6 5 4 5 4 4 5 5 3 3 4 4 4 4 3 3 3 8 7 5 4 4 3 3 3 3 3
6 6 6 6 6 6 7 7 7 7 7 7 7 7 7 7 7 5 6 5 5 5 5 5 4 3 3 3 5 4 4 3 4 7 8 7 5 4 4 3 3 3 2
6 6 6 6 6 6 7 7 7 7 7 7 7 7 7 8 7 7 6 6 5 5 5 6 4 4 4 4 4 4 4 4 4 4 4 5 7 7 6 4 4 3 3
6 6 6 6 6 6 6 6 6 7 7 7 7 7 7 6 6 6 5 5 6 5 5 5 5 4 4 4 4 4 4 3 3 3 3 4 5 5 5 6 5 4 3
6 6 6 6 7 5 2 4 6 7 7 7 7 7 7 7 6 7 6 5 6 7 6 6 5 5 5 5 4 4 4 3 3 3 3 3 3 3 3 2 5 5 5
5 5 5 6 6 5 4 6 8 8 8 7 7 6 6 5 7 7 7 7 8 7 7 8 7 6 5 5 5 5 4 4 3 3 4 4 3 3 3 4 7 6 6
4 4 5 5 5 5 5 7 7 9 9 8 7 7 7 6 5 5 6 7 7 7 7 8 7 6 4 3 5 6 5 5 4 3 3 4 3 3 3 4 9 7 7
4 5 5 5 6 5 5 6 7 7 7 8 7 7 7 7 5 5 7 7 7 6 5 5 4 3 2 3 4 4 5 5 5 4 4 4 3 3 3 4 7 10 9
4 5 5 5 5 5 3 5 6 6 6 6 6 6 6 6 5 6 7 7 7 6 5 5 5 5 6 6 6 6 5 5 4 4 4 4 3 3 3 3 4 6 7
Wind_Direction
194 162 177 201 216 187 186 202 207 193 203 206 214 214 225 235 243 238 170 177 201 217 224 223 223 222 222 221 219 219 218 219 220 222 224 223 223 224 223 220 221 224 225
191 202 195 203 211 212 205 203 195 203 218 221 225 228 235 230 222 238 234 187 200 215 226 228 223 222 224 224 224 225 224 224 223 224 226 227 229 229 227 227 227 229 228
204 220 215 217 210 203 201 218 208 214 223 221 224 232 234 238 233 232 241 236 210 206 216 222 221 222 224 226 228 227 227 227 226 225 226 228 230 232 231 231 232 232 230
216 226 225 222 212 221 211 207 221 222 234 249 241 238 235 226 235 235 235 233 238 225 204 208 217 221 224 228 230 229 229 228 228 227 226 227 230 232 232 232 234 234 233
215 221 227 226 225 227 225 232 207 239 235 244 242 227 238 232 233 238 242 241 233 237 234 194 206 219 225 229 230 229 230 230 228 229 230 230 231 232 232 233 234 234 234
217 227 219 216 230 223 224 229 225 232 244 244 259 254 252 243 237 239 245 239 233 232 235 233 212 211 217 226 229 230 231 233 231 231 232 232 233 232 231 232 233 233 233
218 227 240 210 229 224 232 234 233 223 234 237 251 245 231 224 231 232 240 252 241 241 245 239 242 242 210 209 218 227 234 238 238 235 235 235 234 233 231 231 231 232 233
223 218 226 231 224 227 227 232 234 250 243 221 258 264 235 194 201 210 220 223 244 243 241 236 237 234 253 238 184 205 226 238 244 242 239 235 233 234 233 232 232 232 233
223 234 230 238 235 237 226 230 233 240 249 231 237 268 279 264 216 176 198 206 216 238 248 239 234 232 237 242 229 180 206 233 245 249 249 245 239 239 240 239 237 236 236
226 226 230 231 238 244 237 235 224 242 247 246 218 236 270 312 288 234 189 173 188 218 243 253 241 216 223 228 176 107 163 214 238 252 258 258 251 250 246 241 238 236 236
219 226 225 226 230 239 240 248 246 246 244 251 248 235 231 234 249 265 253 224 208 206 213 229 238 233 218 211 195 118 130 150 195 237 263 268 263 259 252 244 242 240 239
211 215 220 225 234 240 235 237 240 235 248 256 259 251 240 242 239 248 256 245 241 234 230 244 243 218 192 179 125 103 120 130 144 184 255 285 290 280 272 266 257 250 245
213 209 217 222 233 236 239 239 233 244 236 238 242 247 248 251 260 261 267 268 261 245 216 223 222 223 193 153 118 126 116 107 91 94 124 115 43 11 343 320 290 272 262
223 211 215 224 232 236 238 231 240 234 232 235 241 245 247 245 249 253 260 265 261 244 222 218 200 194 195 169 105 186 127 116 108 109 108 102 94 86 76 62 38 26 23
218 210 219 226 232 236 240 236 237 238 235 239 240 231 240 238 240 245 247 253 263 263 242 193 206 188 205 164 152 174 137 120 129 128 118 110 102 98 92 88 77 65 58
220 220 220 227 231 234 233 236 237 232 233 236 240 243 242 243 236 237 239 242 251 262 269 218 198 182 188 203 166 186 138 137 126 130 124 117 107 102 94 89 83 76 72
215 221 224 227 230 234 234 234 241 236 234 235 235 230 231 244 243 237 232 234 236 242 250 253 227 177 193 220 189 193 183 189 142 142 138 129 119 109 100 90 83 77 69
215 219 226 227 231 233 233 234 238 238 236 236 234 233 233 225 228 244 241 238 234 236 242 244 238 211 202 204 207 217 206 198 167 143 150 145 136 125 117 106 93 80 71
217 221 227 227 232 235 234 235 239 240 239 239 238 234 232 228 227 230 238 238 232 223 230 239 237 225 213 202 205 214 212 220 203 157 164 165 159 148 139 132 119 104 92
217 221 227 230 233 237 238 238 238 241 242 241 239 237 234 231 229 230 230 232 235 232 225 237 235 217 212 204 216 216 211 207 223 195 174 170 165 164 155 151 144 135 129
222 221 226 227 232 235 235 237 240 238 240 240 239 237 235 234 239 240 244 231 228 232 229 231 230 223 217 206 218 224 224 212 207 217 196 186 181 185 175 172 170 160 155
228 224 225 229 234 240 222 233 247 245 242 241 242 240 234 223 223 226 244 248 243 236 239 240 234 231 226 222 220 229 224 217 210 196 225 217 211 202 181 161 140 155 161
223 224 224 230 238 238 222 226 238 248 245 243 242 240 241 229 217 225 220 226 234 243 248 251 250 246 233 222 223 221 220 230 236 196 219 227 210 208 184 126 140 158 166
221 227 234 237 241 239 221 224 229 239 244 243 238 235 237 237 222 223 224 223 228 228 232 236 247 245 245 238 226 228 220 214 215 204 215 234 210 216 199 157 157 172 177
226 231 231 235 241 239 222 222 229 239 236 237 235 234 234 231 210 213 223 223 226 227 212 216 241 234 228 222 233 229 213 213 213 196 203 237 218 213 207 187 164 176 183
229 236 235 237 242 247 218 215 226 241 236 235 232 230 223 232 207 202 223 223 225 227 219 199 205 206 206 197 208 228 226 223 221 204 181 224 218 212 212 193 181 179 189